User: anonymous   Login
Location: Austin
(30.3000°N, 97.7500°W)
Time: 15:45:21
(UTC-05:00)
Language:

TSX-5 - Orbit

View from above orbital plane
View from above orbital plane
View from above satellite
View from above satellite

Ground track
Ground track

The orbit data is extracted from the following two-line orbital elements,

1 26374U 00030A   24280.84344503  .00027670  00000-0  18303-2 0  9991
2 26374  68.9231  64.8116 0524485  88.8268 277.2863 14.36013297232948
Epoch (UTC): 06 October 2024 20:14:33
Eccentricity: 0.0524485
inclination: 68.9231°
perigee height: 397 km
apogee height: 1147 km
right ascension of ascending node: 64.8116°
argument of perigee: 88.8268°
revolutions per day: 14.36013297
mean anomaly at epoch: 277.2863°
orbit number at epoch: 23294

The dashed part of the orbit path shows where the satellite is in the earth's shadow,  

DLR